Time,TemperatureF,DewpointF,PressureIn,WindDirection,WindDirectionDegrees,WindSpeedMPH,WindSpeedGustMPH,Humidity,HourlyPrecipIn,Conditions,Clouds,dailyrainin,SoftwareType,DateUTC
2013-05-01 00:01:00,70.3,49.6,29.90,SW,225,15.0,19.0,48,0.00,,,0.04,meteohub,2013-05-01 05:01:00,
2013-05-01 00:06:00,70.3,49.6,29.90,SW,225,15.0,19.0,48,0.00,,,0.00,meteohub,2013-05-01 05:06:00,
2013-05-01 00:11:00,70.2,50.2,29.90,SW,225,14.0,19.0,49,0.00,,,0.00,meteohub,2013-05-01 05:11:00,
2013-05-01 00:16:00,70.3,49.6,29.90,South,180,19.0,19.0,48,0.00,,,0.00,meteohub,2013-05-01 05:16:00,
2013-05-01 00:21:00,70.5,49.8,29.90,WNW,293,17.0,19.0,48,0.00,,,0.00,meteohub,2013-05-01 05:21:00,
2013-05-01 00:26:00,70.3,50.4,29.91,SW,225,13.0,20.0,49,0.00,,,0.00,meteohub,2013-05-01 05:26:00,
2013-05-01 00:31:00,70.3,50.4,29.91,SW,225,19.0,20.0,49,0.00,,,0.00,meteohub,2013-05-01 05:31:00,
2013-05-01 00:36:00,70.2,50.2,29.90,SW,225,15.0,19.0,49,0.00,,,0.00,meteohub,2013-05-01 05:36:00,
2013-05-01 00:42:00,70.2,50.2,29.91,SW,225,10.0,19.0,49,0.00,,,0.00,meteohub,2013-05-01 05:42:00,
2013-05-01 00:47:00,70.2,50.2,29.90,SW,225,13.0,19.0,49,0.00,,,0.00,meteohub,2013-05-01 05:47:00,
2013-05-01 00:52:00,70.2,50.2,29.90,SW,225,18.0,19.0,49,0.00,,,0.00,meteohub,2013-05-01 05:52:00,
2013-05-01 00:57:00,70.2,50.2,29.91,South,180,20.0,20.0,49,0.00,,,0.00,meteohub,2013-05-01 05:57:00,
2013-05-01 01:02:00,70.2,49.6,29.91,SSW,203,16.0,20.0,48,0.00,,,0.00,meteohub,2013-05-01 06:02:00,
2013-05-01 01:07:00,70.2,49.6,29.91,SSW,203,16.0,20.0,48,0.00,,,0.00,meteohub,2013-05-01 06:07:00,
2013-05-01 01:12:00,69.8,49.3,29.92,West,270,8.0,20.0,48,0.00,,,0.00,meteohub,2013-05-01 06:12:00,
2013-05-01 01:17:00,69.6,49.6,29.93,SE,135,4.0,18.0,49,0.00,,,0.00,meteohub,2013-05-01 06:17:00,
2013-05-01 01:22:00,69.1,49.6,29.93,NNE,23,5.0,18.0,50,0.00,,,0.00,meteohub,2013-05-01 06:22:00,
2013-05-01 01:27:00,68.7,49.8,29.93,NW,315,9.0,18.0,51,0.00,,,0.00,meteohub,2013-05-01 06:27:00,
2013-05-01 01:32:00,68.5,49.6,29.93,West,270,8.0,11.0,51,0.00,,,0.00,meteohub,2013-05-01 06:32:00,
2013-05-01 01:37:00,68.4,49.5,29.93,West,270,7.0,11.0,51,0.00,,,0.00,meteohub,2013-05-01 06:37:00,
2013-05-01 01:42:00,68.2,49.8,29.93,NW,315,9.0,11.0,52,0.00,,,0.00,meteohub,2013-05-01 06:42:00,
2013-05-01 01:47:00,68.0,49.6,29.93,West,270,8.0,9.0,52,0.00,,,0.00,meteohub,2013-05-01 06:47:00,
2013-05-01 01:52:00,68.0,49.6,29.94,West,270,8.0,9.0,52,0.00,,,0.00,meteohub,2013-05-01 06:52:00,
2013-05-01 01:57:00,67.6,49.5,29.94,West,270,6.0,9.0,52,0.00,,,0.00,meteohub,2013-05-01 06:57:00,
2013-05-01 02:02:00,67.5,48.7,29.94,North,0,10.0,10.0,51,0.00,,,0.00,meteohub,2013-05-01 07:02:00,
2013-05-01 02:07:00,67.5,48.7,29.93,North,0,10.0,10.0,51,0.00,,,0.00,meteohub,2013-05-01 07:07:00,
2013-05-01 02:12:00,66.0,45.7,29.93,North,0,6.0,10.0,48,0.00,,,0.00,meteohub,2013-05-01 07:12:00,
2013-05-01 02:17:00,64.4,44.2,29.93,North,0,6.0,10.0,48,0.00,,,0.00,meteohub,2013-05-01 07:17:00,
2013-05-01 02:22:00,63.3,43.3,29.93,North,0,9.0,10.0,48,0.00,,,0.00,meteohub,2013-05-01 07:22:00,
2013-05-01 02:27:00,62.4,43.0,29.93,NE,45,5.0,10.0,49,0.00,,,0.00,meteohub,2013-05-01 07:27:00,
2013-05-01 02:32:00,61.9,43.0,29.94,NW,315,7.0,10.0,50,0.00,,,0.00,meteohub,2013-05-01 07:32:00,
2013-05-01 02:37:00,61.5,42.6,29.94,NE,45,8.0,9.0,50,0.00,,,0.00,meteohub,2013-05-01 07:37:00,
2013-05-01 02:42:00,61.5,42.6,29.94,North,0,8.0,10.0,50,0.00,,,0.00,meteohub,2013-05-01 07:42:00,
2013-05-01 02:47:00,61.2,43.0,29.94,North,0,9.0,10.0,51,0.00,,,0.00,meteohub,2013-05-01 07:47:00,
2013-05-01 02:52:00,61.0,42.8,29.94,SW,225,8.0,10.0,51,0.00,,,0.00,meteohub,2013-05-01 07:52:00,
2013-05-01 02:57:00,60.6,42.4,29.95,NNW,338,7.0,10.0,51,0.00,,,0.00,meteohub,2013-05-01 07:57:00,
2013-05-01 03:02:00,60.4,42.3,29.95,North,0,10.0,10.0,51,0.00,,,0.00,meteohub,2013-05-01 08:02:00,
2013-05-01 03:07:00,60.4,42.3,29.95,North,0,10.0,10.0,51,0.00,,,0.00,meteohub,2013-05-01 08:07:00,
2013-05-01 03:12:00,60.1,41.4,29.95,North,0,9.0,10.0,50,0.00,,,0.00,meteohub,2013-05-01 08:12:00,
2013-05-01 03:17:00,59.9,41.2,29.95,North,0,10.0,10.0,50,0.00,,,0.00,meteohub,2013-05-01 08:17:00,
2013-05-01 03:22:00,59.7,41.5,29.95,NE,45,10.0,10.0,51,0.00,,,0.00,meteohub,2013-05-01 08:22:00,
2013-05-01 03:27:00,59.5,41.9,29.95,NE,45,8.0,11.0,52,0.00,,,0.00,meteohub,2013-05-01 08:27:00,
2013-05-01 03:32:00,59.2,42.1,29.95,NE,45,8.0,11.0,53,0.00,,,0.00,meteohub,2013-05-01 08:32:00,
2013-05-01 03:37:00,59.0,40.8,29.96,NE,45,8.0,11.0,51,0.00,,,0.00,meteohub,2013-05-01 08:37:00,
2013-05-01 03:42:00,58.6,40.1,29.95,NE,45,9.0,11.0,50,0.00,,,0.00,meteohub,2013-05-01 08:42:00,
2013-05-01 03:47:00,58.3,40.3,29.95,NE,45,6.0,10.0,51,0.00,,,0.00,meteohub,2013-05-01 08:47:00,
2013-05-01 03:52:00,58.1,40.1,29.95,NE,45,7.0,9.0,51,0.00,,,0.00,meteohub,2013-05-01 08:52:00,
2013-05-01 03:57:00,57.9,39.4,29.96,NE,45,8.0,9.0,50,0.00,,,0.00,meteohub,2013-05-01 08:57:00,
2013-05-01 04:02:00,57.7,39.7,29.96,NE,45,8.0,8.0,51,0.00,,,0.00,meteohub,2013-05-01 09:02:00,
2013-05-01 04:07:00,57.6,39.6,29.96,NE,45,8.0,8.0,51,0.00,,,0.00,meteohub,2013-05-01 09:07:00,
2013-05-01 04:12:00,57.6,39.0,29.96,NE,45,8.0,10.0,50,0.00,,,0.00,meteohub,2013-05-01 09:12:00,
2013-05-01 04:17:00,57.6,39.0,29.97,North,0,10.0,10.0,50,0.00,,,0.00,meteohub,2013-05-01 09:17:00,
2013-05-01 04:22:00,57.6,39.0,29.97,North,0,10.0,10.0,50,0.00,,,0.00,meteohub,2013-05-01 09:22:00,
2013-05-01 04:27:00,57.2,39.2,29.97,NNE,23,9.0,10.0,51,0.00,,,0.00,meteohub,2013-05-01 09:27:00,
2013-05-01 04:32:00,56.8,38.8,29.97,NE,45,8.0,11.0,51,0.00,,,0.00,meteohub,2013-05-01 09:32:00,
2013-05-01 04:37:00,56.5,39.0,29.97,NE,45,9.0,11.0,52,0.00,,,0.00,meteohub,2013-05-01 09:37:00,
2013-05-01 04:42:00,56.3,38.8,29.97,NE,45,9.0,10.0,52,0.00,,,0.00,meteohub,2013-05-01 09:42:00,
2013-05-01 04:47:00,56.3,38.8,29.97,NE,45,11.0,11.0,52,0.00,,,0.00,meteohub,2013-05-01 09:47:00,
2013-05-01 04:52:00,56.3,38.5,29.98,NE,45,8.0,11.0,51,0.00,,,0.00,meteohub,2013-05-01 09:52:00,
2013-05-01 04:57:00,55.9,38.1,29.98,NE,45,8.0,11.0,51,0.00,,,0.00,meteohub,2013-05-01 09:57:00,
2013-05-01 05:02:00,55.9,38.5,29.98,NE,45,8.0,11.0,52,0.00,,,0.00,meteohub,2013-05-01 10:02:00,
2013-05-01 05:07:00,55.9,38.5,29.98,NE,45,8.0,8.0,52,0.00,,,0.00,meteohub,2013-05-01 10:07:00,
2013-05-01 05:12:00,55.8,38.5,29.98,North,0,8.0,10.0,52,0.00,,,0.00,meteohub,2013-05-01 10:12:00,
2013-05-01 05:17:00,55.8,38.5,29.98,NNE,23,8.0,10.0,52,0.00,,,0.00,meteohub,2013-05-01 10:17:00,
2013-05-01 05:22:00,55.8,38.5,29.99,North,0,9.0,10.0,52,0.00,,,0.00,meteohub,2013-05-01 10:22:00,
2013-05-01 05:27:00,55.6,38.3,29.99,North,0,8.0,10.0,52,0.00,,,0.00,meteohub,2013-05-01 10:27:00,
2013-05-01 05:32:00,55.8,38.5,29.99,North,0,10.0,10.0,52,0.00,,,0.00,meteohub,2013-05-01 10:32:00,
2013-05-01 05:37:00,55.6,38.7,30.00,North,0,8.0,11.0,53,0.00,,,0.00,meteohub,2013-05-01 10:37:00,
2013-05-01 05:42:00,55.6,38.7,30.00,North,0,12.0,12.0,53,0.00,,,0.00,meteohub,2013-05-01 10:42:00,
2013-05-01 05:47:00,55.8,38.5,30.01,North,0,9.0,13.0,52,0.00,,,0.00,meteohub,2013-05-01 10:47:00,
2013-05-01 05:52:00,55.9,38.5,30.01,North,0,11.0,13.0,52,0.00,,,0.00,meteohub,2013-05-01 10:52:00,
2013-05-01 05:57:00,55.9,38.5,30.01,North,0,10.0,13.0,52,0.00,,,0.00,meteohub,2013-05-01 10:57:00,
2013-05-01 06:02:00,55.8,38.8,30.00,NNE,23,12.0,13.0,53,0.00,,,0.00,meteohub,2013-05-01 11:02:00,
2013-05-01 06:07:00,55.8,38.8,30.01,North,0,11.0,13.0,53,0.00,,,0.00,meteohub,2013-05-01 11:07:00,
2013-05-01 06:12:00,56.1,38.7,30.01,NE,45,16.0,16.0,52,0.00,,,0.00,meteohub,2013-05-01 11:12:00,
2013-05-01 06:17:00,56.3,38.8,30.02,North,0,10.0,17.0,52,0.00,,,0.00,meteohub,2013-05-01 11:17:00,
2013-05-01 06:22:00,56.1,38.7,30.02,North,0,9.0,17.0,52,0.00,,,0.00,meteohub,2013-05-01 11:22:00,
2013-05-01 06:27:00,55.9,38.5,30.02,North,0,13.0,16.0,52,0.00,,,0.00,meteohub,2013-05-01 11:27:00,
2013-05-01 06:32:00,55.9,39.0,30.02,North,0,9.0,14.0,53,0.00,,,0.00,meteohub,2013-05-01 11:32:00,
2013-05-01 06:37:00,55.9,39.0,30.03,North,0,9.0,14.0,53,0.00,,,0.00,meteohub,2013-05-01 11:37:00,
2013-05-01 06:42:00,56.1,39.2,30.03,North,0,11.0,14.0,53,0.00,,,0.00,meteohub,2013-05-01 11:42:00,
2013-05-01 06:47:00,56.3,39.4,30.03,North,0,9.0,11.0,53,0.00,,,0.00,meteohub,2013-05-01 11:47:00,
2013-05-01 06:52:00,56.5,39.6,30.03,NE,45,11.0,11.0,53,0.00,,,0.00,meteohub,2013-05-01 11:52:00,
2013-05-01 06:57:00,56.7,39.7,30.03,North,0,13.0,13.0,53,0.00,,,0.00,meteohub,2013-05-01 11:57:00,
2013-05-01 07:02:00,56.8,39.9,30.03,WNW,293,11.0,13.0,53,0.00,,,0.00,meteohub,2013-05-01 12:02:00,
2013-05-01 07:07:00,57.0,40.1,30.04,North,0,12.0,13.0,53,0.00,,,0.00,meteohub,2013-05-01 12:07:00,
2013-05-01 07:12:00,56.8,39.9,30.04,NNE,23,9.0,14.0,53,0.00,,,0.00,meteohub,2013-05-01 12:12:00,
2013-05-01 07:17:00,56.5,40.1,30.04,North,0,9.0,14.0,54,0.00,,,0.00,meteohub,2013-05-01 12:17:00,
2013-05-01 07:22:00,56.3,39.9,30.04,North,0,12.0,13.0,54,0.00,,,0.00,meteohub,2013-05-01 12:22:00,
2013-05-01 07:27:00,56.3,39.9,30.05,North,0,12.0,13.0,54,0.00,,,0.00,meteohub,2013-05-01 12:27:00,
2013-05-01 07:32:00,56.7,40.3,30.05,North,0,11.0,12.0,54,0.00,,,0.00,meteohub,2013-05-01 12:32:00,
2013-05-01 07:37:00,57.2,40.6,30.05,NE,45,11.0,14.0,54,0.00,,,0.00,meteohub,2013-05-01 12:37:00,
2013-05-01 07:42:00,57.7,41.2,30.05,North,0,11.0,15.0,54,0.00,,,0.00,meteohub,2013-05-01 12:42:00,
2013-05-01 07:47:00,57.7,41.2,30.05,NE,45,15.0,15.0,54,0.00,,,0.00,meteohub,2013-05-01 12:47:00,
2013-05-01 07:52:00,57.9,40.8,30.06,NE,45,11.0,15.0,53,0.00,,,0.00,meteohub,2013-05-01 12:52:00,
2013-05-01 07:57:00,58.5,41.9,30.06,NE,45,10.0,17.0,54,0.00,,,0.00,meteohub,2013-05-01 12:57:00,
2013-05-01 08:02:00,59.0,41.4,30.06,North,0,15.0,17.0,52,0.00,,,0.00,meteohub,2013-05-01 13:02:00,
2013-05-01 08:07:00,59.0,41.9,30.06,NNW,338,12.0,15.0,53,0.00,,,0.00,meteohub,2013-05-01 13:07:00,
2013-05-01 08:12:00,59.2,41.5,30.06,North,0,16.0,16.0,52,0.00,,,0.00,meteohub,2013-05-01 13:12:00,
2013-05-01 08:17:00,59.2,42.1,30.06,North,0,11.0,16.0,53,0.00,,,0.00,meteohub,2013-05-01 13:17:00,
2013-05-01 08:22:00,59.5,41.9,30.06,NNE,23,14.0,17.0,52,0.00,,,0.00,meteohub,2013-05-01 13:22:00,
2013-05-01 08:27:00,59.7,42.1,30.06,NE,45,14.0,17.0,52,0.00,,,0.00,meteohub,2013-05-01 13:27:00,
2013-05-01 08:32:00,60.1,42.4,30.06,North,0,13.0,17.0,52,0.00,,,0.00,meteohub,2013-05-01 13:32:00,
2013-05-01 08:37:00,60.1,42.4,30.07,NE,45,13.0,15.0,52,0.00,,,0.00,meteohub,2013-05-01 13:37:00,
2013-05-01 08:42:00,60.3,42.6,30.07,North,0,11.0,15.0,52,0.00,,,0.00,meteohub,2013-05-01 13:42:00,
2013-05-01 08:47:00,60.6,42.4,30.07,North,0,13.0,15.0,51,0.00,,,0.00,meteohub,2013-05-01 13:47:00,
2013-05-01 08:52:00,60.8,43.5,30.07,North,0,11.0,15.0,53,0.00,,,0.00,meteohub,2013-05-01 13:52:00,
2013-05-01 08:57:00,61.2,42.4,30.07,NE,45,15.0,15.0,50,0.00,,,0.00,meteohub,2013-05-01 13:57:00,
2013-05-01 09:02:00,61.2,43.0,30.07,NE,45,14.0,17.0,51,0.00,,,0.00,meteohub,2013-05-01 14:02:00,
2013-05-01 09:07:00,61.7,43.3,30.07,North,0,9.0,17.0,51,0.00,,,0.00,meteohub,2013-05-01 14:07:00,
2013-05-01 09:12:00,61.9,43.5,30.07,North,0,15.0,17.0,51,0.00,,,0.00,meteohub,2013-05-01 14:12:00,
2013-05-01 09:17:00,62.2,43.9,30.07,NE,45,11.0,16.0,51,0.00,,,0.00,meteohub,2013-05-01 14:17:00,
2013-05-01 09:22:00,63.1,44.2,30.08,NE,45,14.0,15.0,50,0.00,,,0.00,meteohub,2013-05-01 14:22:00,
2013-05-01 09:27:00,63.3,43.9,30.07,NNE,23,11.0,15.0,49,0.00,,,0.00,meteohub,2013-05-01 14:27:00,
2013-05-01 09:32:00,63.3,43.9,30.08,North,0,12.0,14.0,49,0.00,,,0.00,meteohub,2013-05-01 14:32:00,
2013-05-01 09:37:00,63.3,44.4,30.07,NE,45,10.0,14.0,50,0.00,,,0.00,meteohub,2013-05-01 14:37:00,
2013-05-01 09:42:00,64.0,43.9,30.08,NE,45,14.0,15.0,48,0.00,,,0.00,meteohub,2013-05-01 14:42:00,
2013-05-01 09:47:00,63.9,45.3,30.08,NE,45,10.0,15.0,51,0.00,,,0.00,meteohub,2013-05-01 14:47:00,
2013-05-01 09:52:00,64.0,43.9,30.07,NNE,23,11.0,15.0,48,0.00,,,0.00,meteohub,2013-05-01 14:52:00,
2013-05-01 09:57:00,64.4,43.7,30.08,NE,45,13.0,14.0,47,0.00,,,0.00,meteohub,2013-05-01 14:57:00,
2013-05-01 10:02:00,64.4,43.7,30.08,North,0,12.0,14.0,47,0.00,,,0.00,meteohub,2013-05-01 15:02:00,
2013-05-01 10:07:00,63.9,44.2,30.08,NNE,23,10.0,14.0,49,0.00,,,0.00,meteohub,2013-05-01 15:07:00,
2013-05-01 10:12:00,63.9,44.2,30.08,NE,45,12.0,13.0,49,0.00,,,0.00,meteohub,2013-05-01 15:12:00,
2013-05-01 10:17:00,64.2,44.6,30.08,NE,45,8.0,14.0,49,0.00,,,0.00,meteohub,2013-05-01 15:17:00,
2013-05-01 10:22:00,64.8,45.1,30.08,NE,45,9.0,14.0,49,0.00,,,0.00,meteohub,2013-05-01 15:22:00,
2013-05-01 10:27:00,65.7,46.0,30.08,NE,45,8.0,14.0,49,0.00,,,0.00,meteohub,2013-05-01 15:27:00,
2013-05-01 10:32:00,66.2,45.3,30.09,NE,45,11.0,11.0,47,0.00,,,0.00,meteohub,2013-05-01 15:32:00,
2013-05-01 10:37:00,66.4,45.0,30.09,NE,45,9.0,11.0,46,0.00,,,0.00,meteohub,2013-05-01 15:37:00,
2013-05-01 10:42:00,66.4,45.5,30.09,NE,45,15.0,15.0,47,0.00,,,0.00,meteohub,2013-05-01 15:42:00,
2013-05-01 10:47:00,66.6,44.6,30.08,East,90,11.0,15.0,45,0.00,,,0.00,meteohub,2013-05-01 15:47:00,
2013-05-01 10:52:00,66.7,44.8,30.08,ENE,68,11.0,15.0,45,0.00,,,0.00,meteohub,2013-05-01 15:52:00,
2013-05-01 10:57:00,66.7,45.9,30.09,SE,135,8.0,15.0,47,0.00,,,0.00,meteohub,2013-05-01 15:57:00,
2013-05-01 11:02:00,67.3,46.4,30.09,ESE,113,11.0,15.0,47,0.00,,,0.00,meteohub,2013-05-01 16:02:00,
2013-05-01 11:07:00,67.3,45.9,30.09,East,90,9.0,12.0,46,0.00,,,0.00,meteohub,2013-05-01 16:07:00,
2013-05-01 11:12:00,67.3,45.1,30.09,East,90,11.0,12.0,45,0.00,,,0.00,meteohub,2013-05-01 16:12:00,
2013-05-01 11:17:00,67.8,45.7,30.09,East,90,8.0,12.0,45,0.00,,,0.00,meteohub,2013-05-01 16:17:00,
2013-05-01 11:22:00,67.8,45.7,30.08,East,90,6.0,13.0,45,0.00,,,0.00,meteohub,2013-05-01 16:22:00,
2013-05-01 11:27:00,68.4,46.2,30.09,East,90,14.0,14.0,45,0.00,,,0.00,meteohub,2013-05-01 16:27:00,
2013-05-01 11:32:00,68.4,45.7,30.09,East,90,11.0,14.0,44,0.00,,,0.00,meteohub,2013-05-01 16:32:00,
2013-05-01 11:37:00,68.5,46.4,30.09,ESE,113,8.0,14.0,45,0.00,,,0.00,meteohub,2013-05-01 16:37:00,
2013-05-01 11:42:00,68.7,46.6,30.09,East,90,7.0,14.0,45,0.00,,,0.00,meteohub,2013-05-01 16:42:00,
2013-05-01 11:47:00,69.3,46.4,30.08,NE,45,10.0,11.0,44,0.00,,,0.00,meteohub,2013-05-01 16:47:00,
2013-05-01 11:52:00,69.6,47.3,30.08,East,90,11.0,11.0,45,0.00,,,0.00,meteohub,2013-05-01 16:52:00,
2013-05-01 11:57:00,69.8,46.2,30.07,East,90,12.0,13.0,43,0.00,,,0.00,meteohub,2013-05-01 16:57:00,
2013-05-01 12:02:00,70.3,48.0,30.08,NE,45,7.0,13.0,45,0.00,,,0.00,meteohub,2013-05-01 17:02:00,
2013-05-01 12:07:00,70.5,47.5,30.08,East,90,8.0,13.0,44,0.00,,,0.00,meteohub,2013-05-01 17:07:00,
2013-05-01 12:12:00,70.3,46.8,30.08,East,90,8.0,15.0,43,0.00,,,0.00,meteohub,2013-05-01 17:12:00,
2013-05-01 12:17:00,70.5,46.9,30.08,East,90,8.0,15.0,43,0.00,,,0.00,meteohub,2013-05-01 17:17:00,
2013-05-01 12:22:00,71.1,46.8,30.08,East,90,10.0,15.0,42,0.00,,,0.00,meteohub,2013-05-01 17:22:00,
2013-05-01 12:27:00,71.2,46.4,30.08,ENE,68,8.0,12.0,41,0.00,,,0.00,meteohub,2013-05-01 17:27:00,
2013-05-01 12:32:00,71.1,46.8,30.08,SE,135,7.0,11.0,42,0.00,,,0.00,meteohub,2013-05-01 17:32:00,
2013-05-01 12:37:00,71.8,46.2,30.08,SE,135,7.0,11.0,40,0.00,,,0.00,meteohub,2013-05-01 17:37:00,
2013-05-01 12:42:00,71.8,47.5,30.08,NE,45,8.0,11.0,42,0.00,,,0.00,meteohub,2013-05-01 17:42:00,
2013-05-01 12:47:00,72.1,47.1,30.08,East,90,9.0,11.0,41,0.00,,,0.00,meteohub,2013-05-01 17:47:00,
2013-05-01 12:52:00,72.1,47.8,30.08,NE,45,9.0,11.0,42,0.00,,,0.00,meteohub,2013-05-01 17:52:00,
2013-05-01 12:57:00,72.7,48.9,30.08,SW,225,4.0,12.0,43,0.00,,,0.00,meteohub,2013-05-01 17:57:00,
2013-05-01 13:02:00,73.2,47.5,30.08,SE,135,9.0,12.0,40,0.00,,,0.00,meteohub,2013-05-01 18:02:00,
2013-05-01 13:07:00,72.9,47.1,30.08,NE,45,8.0,11.0,40,0.00,,,0.00,meteohub,2013-05-01 18:07:00,
2013-05-01 13:12:00,72.9,47.1,30.08,SE,135,8.0,11.0,40,0.00,,,0.00,meteohub,2013-05-01 18:12:00,
2013-05-01 13:17:00,73.4,46.9,30.08,East,90,10.0,11.0,39,0.00,,,0.00,meteohub,2013-05-01 18:17:00,
2013-05-01 13:22:00,73.6,47.8,30.08,North,0,2.0,11.0,40,0.00,,,0.00,meteohub,2013-05-01 18:22:00,
2013-05-01 13:27:00,74.3,49.1,30.08,NE,45,8.0,11.0,41,0.00,,,0.00,meteohub,2013-05-01 18:27:00,
2013-05-01 13:32:00,74.3,47.1,30.08,NE,45,12.0,12.0,38,0.00,,,0.00,meteohub,2013-05-01 18:32:00,
2013-05-01 13:37:00,73.9,47.5,30.08,NE,45,9.0,12.0,39,0.00,,,0.00,meteohub,2013-05-01 18:37:00,
2013-05-01 13:42:00,73.9,48.0,30.08,NE,45,5.0,12.0,40,0.00,,,0.00,meteohub,2013-05-01 18:42:00,
2013-05-01 13:47:00,74.1,49.6,30.08,East,90,3.0,12.0,42,0.00,,,0.00,meteohub,2013-05-01 18:47:00,
2013-05-01 13:52:00,75.2,49.3,30.09,North,0,7.0,11.0,40,0.00,,,0.00,meteohub,2013-05-01 18:52:00,
2013-05-01 13:57:00,75.4,49.5,30.08,NW,315,3.0,11.0,40,0.00,,,0.00,meteohub,2013-05-01 18:57:00,
2013-05-01 14:02:00,76.3,50.2,30.08,NE,45,4.0,8.0,40,0.00,,,0.00,meteohub,2013-05-01 19:02:00,
2013-05-01 14:07:00,76.6,49.8,30.08,SE,135,5.0,11.0,39,0.00,,,0.00,meteohub,2013-05-01 19:07:00,
2013-05-01 14:12:00,76.5,48.9,30.07,ESE,113,4.0,11.0,38,0.00,,,0.00,meteohub,2013-05-01 19:12:00,
2013-05-01 14:17:00,76.8,50.7,30.08,South,180,6.0,11.0,40,0.00,,,0.00,meteohub,2013-05-01 19:17:00,
2013-05-01 14:22:00,76.8,50.0,30.07,SW,225,5.0,8.0,39,0.00,,,0.00,meteohub,2013-05-01 19:22:00,
2013-05-01 14:27:00,76.8,49.3,30.07,NE,45,7.0,7.0,38,0.00,,,0.00,meteohub,2013-05-01 19:27:00,
2013-05-01 14:32:00,76.8,48.6,30.07,North,0,5.0,8.0,37,0.00,,,0.00,meteohub,2013-05-01 19:32:00,
2013-05-01 14:37:00,77.2,48.9,30.07,East,90,6.0,8.0,37,0.00,,,0.00,meteohub,2013-05-01 19:37:00,
2013-05-01 14:42:00,77.4,51.1,30.07,NE,45,6.0,11.0,40,0.00,,,0.00,meteohub,2013-05-01 19:42:00,
2013-05-01 14:47:00,78.3,50.5,30.07,North,0,2.0,11.0,38,0.00,,,0.00,meteohub,2013-05-01 19:47:00,
2013-05-01 14:52:00,78.1,50.4,30.07,North,0,5.0,11.0,38,0.00,,,0.00,meteohub,2013-05-01 19:52:00,
2013-05-01 14:57:00,78.3,49.8,30.07,NE,45,10.0,10.0,37,0.00,,,0.00,meteohub,2013-05-01 19:57:00,
2013-05-01 15:02:00,77.7,50.7,30.07,North,0,6.0,11.0,39,0.00,,,0.00,meteohub,2013-05-01 20:02:00,
2013-05-01 15:07:00,77.2,48.9,30.07,NE,45,11.0,11.0,37,0.00,,,0.00,meteohub,2013-05-01 20:07:00,
2013-05-01 15:12:00,77.2,50.4,30.07,NE,45,6.0,11.0,39,0.00,,,0.00,meteohub,2013-05-01 20:12:00,
2013-05-01 15:17:00,76.5,49.6,30.07,NE,45,11.0,11.0,39,0.00,,,0.00,meteohub,2013-05-01 20:17:00,
2013-05-01 15:22:00,76.8,50.0,30.07,NE,45,12.0,12.0,39,0.00,,,0.00,meteohub,2013-05-01 20:22:00,
2013-05-01 15:27:00,77.0,49.5,30.07,NE,45,10.0,16.0,38,0.00,,,0.00,meteohub,2013-05-01 20:27:00,
2013-05-01 15:32:00,77.5,50.5,30.07,East,90,2.0,16.0,39,0.00,,,0.00,meteohub,2013-05-01 20:32:00,
2013-05-01 15:37:00,78.3,50.5,30.06,NE,45,2.0,14.0,38,0.00,,,0.00,meteohub,2013-05-01 20:37:00,
2013-05-01 15:42:00,79.0,51.3,30.07,SE,135,2.0,11.0,38,0.00,,,0.00,meteohub,2013-05-01 20:42:00,
2013-05-01 15:47:00,79.5,52.3,30.07,South,180,8.0,11.0,39,0.00,,,0.00,meteohub,2013-05-01 20:47:00,
2013-05-01 15:52:00,79.3,50.7,30.07,SE,135,6.0,8.0,37,0.00,,,0.00,meteohub,2013-05-01 20:52:00,
2013-05-01 15:57:00,79.2,49.8,30.07,East,90,7.0,8.0,36,0.00,,,0.00,meteohub,2013-05-01 20:57:00,
2013-05-01 16:02:00,79.5,50.9,30.06,ENE,68,7.0,8.0,37,0.00,,,0.00,meteohub,2013-05-01 21:02:00,
2013-05-01 16:07:00,79.3,50.0,30.07,NE,45,6.0,8.0,36,0.00,,,0.00,meteohub,2013-05-01 21:07:00,
2013-05-01 16:12:00,78.6,50.2,30.07,East,90,2.0,8.0,37,0.00,,,0.00,meteohub,2013-05-01 21:12:00,
2013-05-01 16:17:00,78.3,49.8,30.07,NW,315,3.0,8.0,37,0.00,,,0.00,meteohub,2013-05-01 21:17:00,
2013-05-01 16:22:00,78.1,50.4,30.07,North,0,9.0,9.0,38,0.00,,,0.00,meteohub,2013-05-01 21:22:00,
2013-05-01 16:27:00,77.9,49.5,30.07,West,270,4.0,9.0,37,0.00,,,0.00,meteohub,2013-05-01 21:27:00,
2013-05-01 16:32:00,78.1,50.4,30.07,NW,315,6.0,9.0,38,0.00,,,0.00,meteohub,2013-05-01 21:32:00,
2013-05-01 16:37:00,78.1,49.6,30.06,North,0,15.0,15.0,37,0.00,,,0.00,meteohub,2013-05-01 21:37:00,
2013-05-01 16:42:00,76.6,49.1,30.06,North,0,15.0,15.0,38,0.00,,,0.00,meteohub,2013-05-01 21:42:00,
2013-05-01 16:47:00,76.1,49.3,30.07,WNW,293,11.0,15.0,39,0.00,,,0.00,meteohub,2013-05-01 21:47:00,
2013-05-01 16:52:00,75.6,49.5,30.07,North,0,8.0,15.0,40,0.00,,,0.00,meteohub,2013-05-01 21:52:00,
2013-05-01 16:57:00,75.2,48.6,30.07,NW,315,12.0,15.0,39,0.00,,,0.00,meteohub,2013-05-01 21:57:00,
2013-05-01 17:02:00,74.8,48.2,30.07,North,0,12.0,14.0,39,0.00,,,0.00,meteohub,2013-05-01 22:02:00,
2013-05-01 17:07:00,74.7,48.7,30.08,NE,45,8.0,14.0,40,0.00,,,0.00,meteohub,2013-05-01 22:07:00,
2013-05-01 17:12:00,74.7,48.7,30.08,NNE,23,10.0,14.0,40,0.00,,,0.00,meteohub,2013-05-01 22:12:00,
2013-05-01 17:17:00,75.4,48.7,30.07,North,0,12.0,14.0,39,0.00,,,0.00,meteohub,2013-05-01 22:17:00,
2013-05-01 17:22:00,75.6,48.9,30.07,North,0,15.0,15.0,39,0.00,,,0.00,meteohub,2013-05-01 22:22:00,
2013-05-01 17:27:00,75.4,48.0,30.07,North,0,15.0,17.0,38,0.00,,,0.00,meteohub,2013-05-01 22:27:00,
2013-05-01 17:32:00,75.0,48.4,30.07,North,0,13.0,18.0,39,0.00,,,0.00,meteohub,2013-05-01 22:32:00,
2013-05-01 17:37:00,74.7,48.0,30.07,North,0,12.0,18.0,39,0.00,,,0.00,meteohub,2013-05-01 22:37:00,
2013-05-01 17:42:00,74.5,49.3,30.08,North,0,8.0,16.0,41,0.00,,,0.00,meteohub,2013-05-01 22:42:00,
2013-05-01 17:47:00,74.5,48.6,30.08,North,0,11.0,16.0,40,0.00,,,0.00,meteohub,2013-05-01 22:47:00,
2013-05-01 17:52:00,74.8,48.2,30.08,NE,45,14.0,16.0,39,0.00,,,0.00,meteohub,2013-05-01 22:52:00,
2013-05-01 17:57:00,74.7,48.7,30.08,North,0,11.0,15.0,40,0.00,,,0.00,meteohub,2013-05-01 22:57:00,
2013-05-01 18:02:00,74.3,48.4,30.08,North,0,13.0,16.0,40,0.00,,,0.00,meteohub,2013-05-01 23:02:00,
2013-05-01 18:07:00,74.1,48.2,30.07,North,0,12.0,16.0,40,0.00,,,0.00,meteohub,2013-05-01 23:07:00,
2013-05-01 18:12:00,73.9,48.7,30.07,North,0,10.0,16.0,41,0.00,,,0.00,meteohub,2013-05-01 23:12:00,
2013-05-01 18:17:00,73.6,47.8,30.08,North,0,15.0,15.0,40,0.00,,,0.00,meteohub,2013-05-01 23:17:00,
2013-05-01 18:22:00,73.0,45.1,30.08,North,0,17.0,17.0,37,0.00,,,0.00,meteohub,2013-05-01 23:22:00,
2013-05-01 18:27:00,72.0,45.0,30.08,NE,45,18.0,21.0,38,0.00,,,0.00,meteohub,2013-05-01 23:27:00,
2013-05-01 18:32:00,71.4,45.1,30.09,NW,315,14.0,21.0,39,0.00,,,0.00,meteohub,2013-05-01 23:32:00,
2013-05-01 18:37:00,71.2,44.2,30.09,NNW,338,17.0,21.0,38,0.00,,,0.00,meteohub,2013-05-01 23:37:00,
2013-05-01 18:42:00,70.9,44.1,30.09,NNW,338,17.0,21.0,38,0.00,,,0.00,meteohub,2013-05-01 23:42:00,
2013-05-01 18:47:00,70.9,44.1,30.09,North,0,19.0,21.0,38,0.00,,,0.00,meteohub,2013-05-01 23:47:00,
2013-05-01 18:52:00,70.7,42.4,30.09,North,0,25.0,25.0,36,0.00,,,0.00,meteohub,2013-05-01 23:52:00,
2013-05-01 18:57:00,70.7,43.9,30.09,North,0,18.0,25.0,38,0.00,,,0.00,meteohub,2013-05-01 23:57:00,
2013-05-01 19:02:00,70.7,43.9,30.09,North,0,18.0,25.0,38,0.00,,,0.00,meteohub,2013-05-02 00:02:00,
2013-05-01 19:07:00,70.5,43.0,30.10,North,0,18.0,25.0,37,0.00,,,0.00,meteohub,2013-05-02 00:07:00,
2013-05-01 19:12:00,70.0,42.4,30.10,North,0,19.0,22.0,37,0.00,,,0.00,meteohub,2013-05-02 00:12:00,
2013-05-01 19:17:00,69.4,42.8,30.11,North,0,21.0,25.0,38,0.00,,,0.00,meteohub,2013-05-02 00:17:00,
2013-05-01 19:22:00,68.4,42.4,30.11,North,0,17.0,25.0,39,0.00,,,0.00,meteohub,2013-05-02 00:22:00,
2013-05-01 19:27:00,67.5,41.7,30.12,North,0,25.0,25.0,39,0.00,,,0.00,meteohub,2013-05-02 00:27:00,
2013-05-01 19:32:00,66.7,41.7,30.12,North,0,20.0,25.0,40,0.00,,,0.00,meteohub,2013-05-02 00:32:00,
2013-05-01 19:37:00,66.0,41.7,30.12,North,0,23.0,27.0,41,0.00,,,0.00,meteohub,2013-05-02 00:37:00,
2013-05-01 19:42:00,65.5,41.2,30.13,North,0,18.0,27.0,41,0.00,,,0.00,meteohub,2013-05-02 00:42:00,
2013-05-01 19:47:00,64.8,41.2,30.13,North,0,21.0,27.0,42,0.00,,,0.00,meteohub,2013-05-02 00:47:00,
2013-05-01 19:52:00,64.2,40.6,30.13,North,0,20.0,26.0,42,0.00,,,0.00,meteohub,2013-05-02 00:52:00,
2013-05-01 19:57:00,63.5,40.6,30.13,North,0,19.0,24.0,43,0.00,,,0.00,meteohub,2013-05-02 00:57:00,
2013-05-01 20:02:00,63.1,40.8,30.14,North,0,20.0,24.0,44,0.00,,,0.00,meteohub,2013-05-02 01:02:00,
2013-05-01 20:07:00,62.8,40.5,30.14,North,0,23.0,23.0,44,0.00,,,0.00,meteohub,2013-05-02 01:07:00,
2013-05-01 20:12:00,62.4,40.3,30.14,North,0,21.0,24.0,44,0.00,,,0.00,meteohub,2013-05-02 01:12:00,
2013-05-01 20:17:00,62.1,40.5,30.14,North,0,18.0,24.0,45,0.00,,,0.00,meteohub,2013-05-02 01:17:00,
2013-05-01 20:22:00,61.9,40.3,30.14,North,0,21.0,23.0,45,0.00,,,0.00,meteohub,2013-05-02 01:22:00,
2013-05-01 20:27:00,61.5,39.9,30.14,North,0,17.0,23.0,45,0.00,,,0.00,meteohub,2013-05-02 01:27:00,
2013-05-01 20:32:00,61.2,40.3,30.15,North,0,25.0,27.0,46,0.00,,,0.00,meteohub,2013-05-02 01:32:00,
2013-05-01 20:37:00,60.8,39.9,30.15,North,0,21.0,27.0,46,0.00,,,0.00,meteohub,2013-05-02 01:37:00,
2013-05-01 20:42:00,60.6,40.3,30.16,North,0,23.0,27.0,47,0.00,,,0.00,meteohub,2013-05-02 01:42:00,
2013-05-01 20:47:00,60.4,40.1,30.16,North,0,26.0,27.0,47,0.00,,,0.00,meteohub,2013-05-02 01:47:00,
2013-05-01 20:52:00,60.1,40.3,30.16,North,0,21.0,27.0,48,0.00,,,0.00,meteohub,2013-05-02 01:52:00,
2013-05-01 20:57:00,59.7,39.9,30.16,North,0,20.0,27.0,48,0.00,,,0.00,meteohub,2013-05-02 01:57:00,
2013-05-01 21:02:00,59.5,39.9,30.16,North,0,21.0,27.0,48,0.00,,,0.00,meteohub,2013-05-02 02:02:00,
2013-05-01 21:07:00,59.5,39.9,30.16,North,0,21.0,26.0,48,0.00,,,0.00,meteohub,2013-05-02 02:07:00,
2013-05-01 21:12:00,59.0,39.9,30.17,North,0,21.0,25.0,49,0.00,,,0.00,meteohub,2013-05-02 02:12:00,
2013-05-01 21:17:00,58.5,39.4,30.17,North,0,15.0,25.0,49,0.00,,,0.00,meteohub,2013-05-02 02:17:00,
2013-05-01 21:22:00,57.9,39.4,30.17,North,0,23.0,25.0,50,0.00,,,0.00,meteohub,2013-05-02 02:22:00,
2013-05-01 21:27:00,57.4,38.8,30.17,North,0,24.0,24.0,50,0.00,,,0.00,meteohub,2013-05-02 02:27:00,
2013-05-01 21:32:00,56.5,38.7,30.17,North,0,31.0,31.0,51,0.00,,,0.00,meteohub,2013-05-02 02:32:00,
2013-05-01 21:37:00,55.2,38.3,30.18,North,0,30.0,33.0,53,0.00,,,0.00,meteohub,2013-05-02 02:37:00,
2013-05-01 21:42:00,54.5,38.1,30.18,North,0,31.0,36.0,54,0.00,,,0.00,meteohub,2013-05-02 02:42:00,
2013-05-01 21:47:00,53.8,37.6,30.18,North,0,28.0,36.0,54,0.00,,,0.00,meteohub,2013-05-02 02:47:00,
2013-05-01 21:52:00,52.9,37.2,30.18,North,0,20.0,36.0,55,0.00,,,0.00,meteohub,2013-05-02 02:52:00,
2013-05-01 21:57:00,52.3,37.0,30.18,North,0,22.0,32.0,56,0.00,,,0.00,meteohub,2013-05-02 02:57:00,
2013-05-01 22:02:00,52.0,36.9,30.18,North,0,31.0,32.0,56,0.00,,,0.00,meteohub,2013-05-02 03:02:00,
2013-05-01 22:07:00,50.9,36.7,30.18,North,0,27.0,31.0,58,0.00,,,0.00,meteohub,2013-05-02 03:07:00,
2013-05-01 22:12:00,50.5,36.3,30.18,North,0,26.0,31.0,58,0.00,,,0.00,meteohub,2013-05-02 03:12:00,
2013-05-01 22:17:00,50.4,36.1,30.19,North,0,27.0,31.0,58,0.00,,,0.00,meteohub,2013-05-02 03:17:00,
2013-05-01 22:22:00,50.0,36.3,30.19,North,0,21.0,29.0,59,0.00,,,0.00,meteohub,2013-05-02 03:22:00,
2013-05-01 22:27:00,49.6,36.0,30.19,North,0,27.0,29.0,59,0.00,,,0.00,meteohub,2013-05-02 03:27:00,
2013-05-01 22:32:00,49.3,36.0,30.19,North,0,23.0,27.0,60,0.00,,,0.00,meteohub,2013-05-02 03:32:00,
2013-05-01 22:37:00,49.1,35.8,30.19,North,0,24.0,27.0,60,0.00,,,0.00,meteohub,2013-05-02 03:37:00,
2013-05-01 22:42:00,48.9,35.6,30.19,North,0,21.0,27.0,60,0.00,,,0.00,meteohub,2013-05-02 03:42:00,
2013-05-01 22:47:00,48.7,35.4,30.19,North,0,26.0,27.0,60,0.00,,,0.00,meteohub,2013-05-02 03:47:00,
2013-05-01 22:52:00,48.9,35.6,30.19,NE,45,28.0,28.0,60,0.00,,,0.00,meteohub,2013-05-02 03:52:00,
2013-05-01 22:57:00,48.7,35.4,30.19,North,0,19.0,30.0,60,0.00,,,0.00,meteohub,2013-05-02 03:57:00,
2013-05-01 23:01:00,48.7,35.4,30.19,North,0,25.0,30.0,60,0.00,,,0.00,meteohub,2013-05-02 04:01:00,
2013-05-01 23:02:00,48.7,35.4,30.19,North,0,25.0,30.0,60,0.00,,,0.00,meteohub,2013-05-02 04:02:00,
2013-05-01 23:08:00,48.7,35.4,30.19,North,0,25.0,30.0,60,0.00,,,0.00,meteohub,2013-05-02 04:08:00,
2013-05-01 23:13:00,48.7,35.4,30.19,North,0,24.0,25.0,60,0.00,,,0.00,meteohub,2013-05-02 04:13:00,
2013-05-01 23:18:00,48.6,35.2,30.18,North,0,24.0,25.0,60,0.00,,,0.00,meteohub,2013-05-02 04:18:00,
2013-05-01 23:23:00,48.4,35.1,30.19,North,0,24.0,27.0,60,0.00,,,0.00,meteohub,2013-05-02 04:23:00,
2013-05-01 23:28:00,48.4,35.1,30.19,NNE,23,23.0,27.0,60,0.00,,,0.00,meteohub,2013-05-02 04:28:00,
2013-05-01 23:33:00,48.4,35.1,30.19,NE,45,19.0,26.0,60,0.00,,,0.00,meteohub,2013-05-02 04:33:00,
2013-05-01 23:38:00,48.2,34.9,30.19,North,0,21.0,26.0,60,0.00,,,0.00,meteohub,2013-05-02 04:38:00,
2013-05-01 23:43:00,48.2,34.9,30.19,NE,45,22.0,24.0,60,0.00,,,0.00,meteohub,2013-05-02 04:43:00,
2013-05-01 23:48:00,48.4,35.1,30.19,North,0,24.0,24.0,60,0.00,,,0.00,meteohub,2013-05-02 04:48:00,
2013-05-01 23:53:00,48.4,34.7,30.19,NNE,23,25.0,27.0,59,0.00,,,0.00,meteohub,2013-05-02 04:53:00,
2013-05-01 23:58:00,48.4,34.7,30.19,NE,45,20.0,27.0,59,0.00,,,0.00,meteohub,2013-05-02 04:58:00,